DECAYED

COSMOS 2251 DEB, 36055 (Decayed)

Orbit data source: Space-Track

COSMOS 2251 DEB, 36055 was space debris in LEO originally from a launch on Wed, 16 Jun 1993 UTC launched from the Plesetsk Missile And Space Complex (PKMTR). The debris from Iridium 33, an American commercial communications satellite, has been tracked extensively since its accidental collision with the defunct Russian satellite Cosmos 2251 in 2009. This event, occurring at high speed in low Earth orbit (LEO), generated thousands of pieces of space debris, significantly increasing the risk of further collisions. The Iridium 33 debris cloud has impacted space traffic management and orbital debris mitigation strategies, making it a subject of ongoing study in space situational awareness.

Loading next visibility...
Identifier
36055, 1993-036AXS
Orbit
Decayed
Country
Flag of CISCIS
Related business
Manufacturer
Unknown
Mission
Decayed spacecraft
Bus & Motor
Unknown
Mass
Unknown
Launch date (UTC)
1993-06-16 (32 years ago)
Launch vehicle
Unknown
Launch site
Plesetsk Missile And Space Complex (PKMTR)
Object type
Payload
Rocket body
Debris
Shape & HBR
Unknown shape, 0.1 m
Radar Cross Section
Small (<0.1 m²)

Expand to show TLE details & history
Last TLE update: 9 months ago

TLE from 9 months ago
0 COSMOS 2251 DEB
1 36055U 93036AXS 25014.12349320  .13327376  47484+0  67578-1 0  9998
2 36055  73.9805  51.3788 0000966 249.3769 110.7362 15.90762007780828
Epoch: 2025-01-14T02:57Z
TLE epoch observation values (Epoch: 2025-01-14T02:57:49.812Z)
Latitude
0.00003°
Longitude
-106.91345°
Altitude
303.17 km
Speed
7.726 km/s
True Right ascension
03h 25m 30s
True Declination
0° 00' 00"
Sunlit
Object was in full shadow at epoch
Visualization orbit readout
Latitude
Unknown
Longitude
Unknown
Altitude
Unknown
Speed
Unknown
Apparent Right ascension
Unknown
Apparent Declination
Unknown
Sunlit
N/A
Visualization observer readout
Local Sidereal Time
02:48:08
Azimuth
Unknown
Elevation
Unknown
Doppler factor
Unknown
Orbital elements
Apogee altitude
298.255 km
Perigee altitude
296.965 km
Semi-major axis
6,675.747 km
Eccentricity
0.0001
Inclination
73.9805°
RAAN
51.3788°
Arg. of periapsis
249.3769°
True anomaly
110.74655°
Mean anomaly
110.7362°
Eccentric anomaly
110.74138°
Mean motion
3.97918 °/min
Orbital period
90.47 mins
BSTAR
0.067578
Loading maneuver chart data...
Computing Atmospheric mass density...

Documentation

Showing up to 5 results
|